TimeMST,TemperatureF,Dew PointF,Humidity,Sea Level PressureIn,VisibilityMPH,Wind Direction,Wind SpeedMPH,Gust SpeedMPH,PrecipitationIn,Events,Conditions,WindDirDegrees,DateUTC
12:15 AM,19.4,17.6,93,29.58,2.5,Calm,Calm,-,N/A,Snow,Light Snow,0,2013-02-21 07:15:00
12:35 AM,19.4,17.6,93,29.58,2.0,Calm,Calm,-,N/A,Snow,Light Snow,0,2013-02-21 07:35:00
12:55 AM,19.4,17.6,93,29.58,1.8,Calm,Calm,-,N/A,Snow,Light Snow,0,2013-02-21 07:55:00
1:15 AM,19.4,17.6,93,29.58,1.0,Calm,Calm,-,N/A,Snow,Light Snow,0,2013-02-21 08:15:00
1:35 AM,19.4,17.6,93,29.58,1.5,Calm,Calm,-,N/A,Snow,Light Snow,0,2013-02-21 08:35:00
1:55 AM,19.4,17.6,93,29.58,2.0,Calm,Calm,-,N/A,Snow,Light Snow,0,2013-02-21 08:55:00
2:15 AM,19.4,17.6,93,29.57,1.0,Calm,Calm,-,N/A,Snow,Snow,0,2013-02-21 09:15:00
2:35 AM,19.4,17.6,93,29.57,1.0,Calm,Calm,-,N/A,Snow,Snow,0,2013-02-21 09:35:00
2:55 AM,19.4,17.6,93,29.56,1.2,Calm,Calm,-,N/A,Snow,Snow,0,2013-02-21 09:55:00
3:15 AM,19.4,19.4,100,29.56,0.8,West,8.1,-,N/A,Snow,Snow,260,2013-02-21 10:15:00
3:35 AM,19.4,19.4,100,29.56,1.2,West,12.7,16.1,N/A,Snow,Light Snow,260,2013-02-21 10:35:00
3:55 AM,21.2,19.4,93,29.57,1.0,West,17.3,-,N/A,Snow,Snow,260,2013-02-21 10:55:00
4:15 AM,21.2,19.4,93,29.58,1.2,West,13.8,-,N/A,Snow,Light Snow,260,2013-02-21 11:15:00
4:55 AM,21.2,19.4,93,29.58,1.2,West,12.7,-,N/A,Snow,Light Snow,270,2013-02-21 11:55:00
5:15 AM,21.2,19.4,93,29.59,1.0,West,12.7,-,N/A,Snow,Light Snow,270,2013-02-21 12:15:00
5:35 AM,21.2,19.4,93,29.60,1.2,West,15.0,-,N/A,Snow,Snow,260,2013-02-21 12:35:00
5:55 AM,21.2,19.4,93,29.60,1.0,West,13.8,-,N/A,Snow,Snow,260,2013-02-21 12:55:00
6:15 AM,21.2,19.4,93,29.60,0.8,West,12.7,-,N/A,Snow,Snow,260,2013-02-21 13:15:00
6:35 AM,21.2,19.4,93,29.61,1.0,West,9.2,-,N/A,Snow,Snow,270,2013-02-21 13:35:00
6:55 AM,21.2,19.4,93,29.62,1.2,West,10.4,-,N/A,Snow,Light Snow,270,2013-02-21 13:55:00
7:15 AM,21.2,19.4,93,29.62,1.0,West,11.5,-,N/A,Snow,Light Snow,270,2013-02-21 14:15:00
7:35 AM,21.2,19.4,93,29.63,0.8,West,10.4,-,N/A,Snow,Light Snow,270,2013-02-21 14:35:00
7:55 AM,21.2,19.4,93,29.64,0.5,West,10.4,-,N/A,Snow,Snow,260,2013-02-21 14:55:00
8:15 AM,21.2,19.4,93,29.65,0.5,West,10.4,-,N/A,Snow,Snow,260,2013-02-21 15:15:00
8:35 AM,21.2,19.4,93,29.66,0.5,West,12.7,-,N/A,Snow,Snow,260,2013-02-21 15:35:00
8:55 AM,21.2,19.4,93,29.67,0.8,West,12.7,18.4,N/A,Snow,Light Snow,270,2013-02-21 15:55:00
9:15 AM,21.2,21.2,100,29.67,1.0,West,16.1,23.0,N/A,Snow,Light Snow,270,2013-02-21 16:15:00
9:35 AM,21.2,19.4,93,29.68,0.8,West,16.1,-,N/A,Snow,Light Snow,270,2013-02-21 16:35:00
9:55 AM,21.2,19.4,93,29.68,0.5,West,15.0,19.6,N/A,Snow,Light Snow,270,2013-02-21 16:55:00
10:15 AM,23.0,19.4,86,29.69,0.8,West,13.8,-,N/A,Snow,Light Snow,270,2013-02-21 17:15:00
10:35 AM,23.0,19.4,86,29.69,1.0,West,12.7,19.6,N/A,Snow,Light Snow,270,2013-02-21 17:35:00
10:55 AM,23.0,19.4,86,29.70,0.5,West,13.8,19.6,N/A,Snow,Light Snow,270,2013-02-21 17:55:00
11:15 AM,23.0,19.4,86,29.70,0.8,West,18.4,-,N/A,Snow,Light Snow,260,2013-02-21 18:15:00
11:35 AM,23.0,19.4,86,29.71,0.8,West,15.0,-,N/A,Snow,Light Snow,260,2013-02-21 18:35:00
11:55 AM,24.8,19.4,80,29.71,1.5,West,15.0,19.6,N/A,Snow,Light Snow,260,2013-02-21 18:55:00
12:15 PM,23.0,19.4,86,29.71,0.5,West,8.1,16.1,N/A,Snow,Snow,260,2013-02-21 19:15:00
12:35 PM,24.8,21.2,86,29.70,1.0,West,12.7,18.4,N/A,Snow,Light Snow,260,2013-02-21 19:35:00
12:55 PM,23.0,19.4,86,29.70,0.2,West,15.0,-,N/A,Snow,Light Snow,260,2013-02-21 19:55:00
1:15 PM,26.6,19.4,74,29.70,2.5,West,13.8,17.3,N/A,,Haze,260,2013-02-21 20:15:00
1:35 PM,26.6,19.4,74,29.70,0.8,West,11.5,-,N/A,Snow,Light Snow,260,2013-02-21 20:35:00
1:55 PM,26.6,19.4,74,29.70,1.8,West,15.0,-,N/A,Snow,Light Snow,260,2013-02-21 20:55:00
2:15 PM,24.8,19.4,80,29.71,1.0,West,11.5,18.4,N/A,Snow,Light Snow,270,2013-02-21 21:15:00
2:35 PM,24.8,19.4,80,29.71,0.5,Calm,Calm,-,N/A,Snow,Light Snow,0,2013-02-21 21:35:00
2:55 PM,23.0,21.2,93,29.71,0.8,West,12.7,-,N/A,Snow,Light Snow,260,2013-02-21 21:55:00
3:15 PM,26.6,21.2,80,29.72,5.0,West,11.5,-,N/A,Snow,Light Snow,260,2013-02-21 22:15:00
3:35 PM,23.0,21.2,93,29.72,2.5,West,12.7,-,N/A,Snow,Light Snow,260,2013-02-21 22:35:00
3:55 PM,23.0,19.4,86,29.72,10.0,West,13.8,-,N/A,,Mostly Cloudy,260,2013-02-21 22:55:00
4:15 PM,24.8,19.4,80,29.72,10.0,West,12.7,-,N/A,,Scattered Clouds,260,2013-02-21 23:15:00
4:35 PM,24.8,19.4,80,29.72,10.0,West,11.5,-,N/A,,Scattered Clouds,260,2013-02-21 23:35:00
4:55 PM,23.0,19.4,86,29.72,10.0,WSW,10.4,-,N/A,,Scattered Clouds,250,2013-02-21 23:55:00
5:15 PM,21.2,21.2,100,29.73,0.8,West,6.9,-,N/A,Snow,Light Snow,270,2013-02-22 00:15:00
5:35 PM,21.2,21.2,100,29.74,1.0,WSW,8.1,-,N/A,Snow,Light Snow,250,2013-02-22 00:35:00
5:55 PM,21.2,21.2,100,29.74,0.2,West,11.5,-,N/A,Snow,Snow,260,2013-02-22 00:55:00
6:15 PM,21.2,21.2,100,29.75,1.0,WSW,6.9,-,N/A,Snow,Snow,240,2013-02-22 01:15:00
6:35 PM,21.2,21.2,100,29.76,1.5,WSW,8.1,-,N/A,Snow,Light Snow,250,2013-02-22 01:35:00
6:55 PM,21.2,21.2,100,29.76,5.0,WSW,9.2,-,N/A,Snow,Light Snow,250,2013-02-22 01:55:00
7:15 PM,21.2,21.2,100,29.77,3.0,WSW,8.1,-,N/A,Snow,Light Snow,250,2013-02-22 02:15:00
7:35 PM,21.2,21.2,100,29.77,5.0,WSW,8.1,-,N/A,Snow,Light Snow,250,2013-02-22 02:35:00
7:55 PM,21.2,21.2,100,29.78,3.0,WSW,4.6,-,N/A,Snow,Light Snow,240,2013-02-22 02:55:00
8:15 PM,21.2,19.4,93,29.79,5.0,West,3.5,-,N/A,Snow,Light Snow,260,2013-02-22 03:15:00
8:35 PM,21.2,19.4,93,29.79,5.0,Calm,Calm,-,N/A,Snow,Light Snow,0,2013-02-22 03:35:00
8:55 PM,21.2,19.4,93,29.79,1.5,Calm,Calm,-,N/A,Snow,Light Snow,0,2013-02-22 03:55:00
9:15 PM,21.2,19.4,93,29.80,2.5,Calm,Calm,-,N/A,Snow,Light Snow,0,2013-02-22 04:15:00
9:35 PM,19.4,19.4,100,29.80,7.0,Calm,Calm,-,N/A,Snow,Light Snow,0,2013-02-22 04:35:00
9:55 PM,19.4,19.4,100,29.80,5.0,Calm,Calm,-,N/A,Snow,Light Snow,0,2013-02-22 04:55:00
10:15 PM,19.4,19.4,100,29.80,4.0,Calm,Calm,-,N/A,Snow,Light Snow,0,2013-02-22 05:15:00
10:35 PM,19.4,19.4,100,29.80,1.5,Calm,Calm,-,N/A,Snow,Light Snow,0,2013-02-22 05:35:00
10:55 PM,19.4,19.4,100,29.80,2.5,ESE,3.5,-,N/A,Snow,Light Snow,120,2013-02-22 05:55:00
11:15 PM,19.4,17.6,93,29.80,3.0,Calm,Calm,-,N/A,Snow,Light Snow,0,2013-02-22 06:15:00
11:55 PM,17.6,17.6,100,29.80,2.0,Calm,Calm,-,N/A,Snow,Light Snow,0,2013-02-22 06:55:00